User: anonymous   Login
Location: Unspecified
(0.0000°N, 0.0000°E)
Time: 04:08:43
(UTC+00:00)
Language:

Aussat K2 - Orbit

View from above orbital plane
View from above orbital plane
View from above satellite
View from above satellite

Ground track
Ground track

The orbit data is extracted from the following two-line orbital elements,

1 16275U 85109C   17288.53194687 +.00000059 +00000-0 +00000-0 0  9997
2 16275 015.2071 007.2561 0007990 246.5011 188.4504 00.99938792014881
Epoch (UTC): 15 October 2017 12:46:00
Eccentricity: 0.0007990
inclination: 15.2071°
perigee height: 35846 km
apogee height: 35913 km
right ascension of ascending node: 7.2561°
argument of perigee: 246.5011°
revolutions per day: 0.99938792
mean anomaly at epoch: 188.4504°
orbit number at epoch: 1488

The dashed part of the orbit path shows where the satellite is in the earth's shadow,  

DLR